Simultaneous Nadir Overpasses (SNOs) Predictions

Prediction of SNOs between AQUA and METOP-B Satellite Orbit:

Table of predicted SNOs for the next 14.0 days since TLE Epoch: 7/24/2021
Index Date (AQUA) Time (AQUA) Lat,Lon (AQUA) SZA (AQUA ) Date (METOP-B) Time (METOP-B) Lat,Lon (METOP-B) SZA (METOP-B ) Distance(km) Time Diff (sec)
1 07/26/2021 16:01:37 73.62, -65.76 54.39 07/26/2021 16:00:25 73.54, -66.37 54.35 20.67 72
2 07/26/2021 16:51:05 -73.76, 101.57 125.45 07/26/2021 16:51:02 -73.78, 101.51 125.43 2.60 3
3 07/26/2021 17:40:35 73.87, -91.04 54.68 07/26/2021 17:41:40 73.87, -90.93 54.66 3.50 65
4 07/29/2021 11:35:54 73.74, 0.40 55.18 07/29/2021 11:34:43 73.74, 0.51 55.18 3.52 71
5 07/29/2021 12:25:20 -73.78, 167.97 124.78 07/29/2021 12:25:24 -73.78, 167.92 124.78 1.47 4
6 07/29/2021 13:14:49 73.84, -24.54 55.30 07/29/2021 13:16:02 73.87, -24.52 55.32 3.20 73
7 08/01/2021 07:10:09 73.72, 66.88 55.85 08/01/2021 07:09:06 73.74, 66.92 55.87 2.30 63
8 08/01/2021 07:59:36 -73.80,-125.65 124.06 08/01/2021 07:59:47 -73.78,-125.67 124.09 3.17 11
9 08/01/2021 08:49:10 74.13, 41.24 56.31 08/01/2021 08:50:20 74.12, 42.49 56.23 38.11 70
10 08/04/2021 02:44:24 73.71, 133.35 56.56 08/04/2021 02:43:29 73.74, 133.32 56.60 3.01 55
11 08/04/2021 03:33:51 -73.79, -59.18 123.35 08/04/2021 03:34:10 -73.77, -59.27 123.36 3.39 19
12 08/04/2021 04:23:31 74.43, 106.98 57.36 08/04/2021 04:24:37 74.41, 109.64 57.23 79.56 66
13 08/06/2021 22:18:38 73.71,-160.21 57.32 08/06/2021 22:17:51 73.73,-160.29 57.36 3.50 47
14 08/06/2021 23:08:06 -73.83, 7.16 122.54 08/06/2021 23:08:31 -73.82, 7.24 122.56 3.00 25



Historial Predications of SNOs between AQUA and METOP-B
